Location: Bonningues
(50.7927°N, 2.0150°E)
Time: 16:55:32
(UTC+00:00)

Resurs 1-3 - Pass Details

Date: 08 August 2020
Orbit: 629 x 632 km, 97.9° (Epoch: 25 September)

Event Time Altitude Azimuth Distance (km) Brightness Sun altitude
Rises 20:10:24 0° 172° (S) 2,909 6.6 -7.0°
Reaches altitude 10° 20:12:36 10° 175° (S) 2,007 5.8 -7.3°
Maximum altitude 20:16:57 66° 258° (WSW) 695 4.0 -7.8°
Drops below altitude 10° 20:21:20 10° 341° (NNW) 2,027 7.2 -8.4°
Sets 20:23:34 0° 344° (NNW) 2,941 8.0 -8.7°
